Location: Beddau
(51.5575°N, 3.3561°W)
Time: 00:46:08
(UTC+00:00)

ERBS - Pass Details

Date: 03 March 2021
Orbit: 408 x 412 km, 57.0° (Epoch: 13 April)

Event Time Altitude Azimuth Distance (km) Brightness Sun altitude
Rises 20:31:23 0° 275° (W) 2,353 7.3 -24.3°
Reaches altitude 10° 20:33:36 10° 285° (WNW) 1,490 6.1 -24.6°
Enters shadow 20:35:54 29° 323° (NW) 795 4.1 -25.0°
